Wetbulb
29.84 29.55 29.14 28.98 28.81 28.59 28.39 28.71 29.31 29.33 29.02 28.41 28.05 28.32 28.75 29.29 29.67 29.82 29.78 29.46 29.35 29.35 29.66 30.19 30.85 31.59 32.33 33.08 33.62 34.08 34.59 34.97 35.26 35.57 35.78 35.71 35.40 35.44 35.54 35.64 35.77 35.69 35.77 35.87 36.18 36.35 36.51 36.95 36.94 37.04 37.08 37.34 37.61 37.92 38.26 38.59 38.83 39.25 39.63 39.82 39.91 40.16 40.42 40.59 41.11 41.86 42.83 43.79 45.08
29.48 29.42 29.16 29.28 28.98 28.39 27.88 27.96 28.29 28.39 28.27 28.06 28.21 28.54 28.97 29.32 29.30 29.10 28.91 29.04 29.20 29.41 29.64 30.14 30.83 31.35 31.89 32.73 33.44 33.89 34.17 34.39 34.74 35.16 35.34 35.34 35.29 35.20 35.30 35.33 35.51 35.61 35.71 35.66 35.94 36.09 36.19 36.58 36.62 36.50 36.58 36.99 37.28 37.58 38.01 38.58 38.89 39.21 39.45 39.55 39.79 40.08 40.38 40.44 41.07 41.95 43.04 44.21 45.39
28.93 28.85 28.51 28.03 27.45 27.05 26.86 26.82 27.02 27.04 27.27 27.62 28.27 28.66 28.86 29.09 28.79 28.63 28.64 28.82 29.18 29.36 29.52 29.79 30.49 31.14 31.79 32.47 33.16 33.55 33.73 33.95 34.46 34.76 34.86 34.89 34.99 35.10 35.19 35.06 35.27 35.62 35.79 35.79 35.82 35.85 36.07 36.36 36.39 36.41 36.44 36.50 36.74 37.13 37.80 38.76 39.34 39.57 39.55 39.72 39.95 40.11 40.42 40.74 41.75 42.97 44.23 45.51 46.22
28.26 28.06 27.60 27.07 26.79 26.64 26.47 26.45 26.53 26.70 26.92 27.44 28.17 28.60 28.72 28.79 28.68 28.64 28.72 28.88 29.00 29.20 29.40 29.62 30.27 31.04 31.75 32.33 32.73 33.07 33.55 34.25 34.63 34.76 34.65 34.54 34.71 34.88 34.99 34.92 35.20 35.50 35.61 35.58 35.64 35.77 36.00 36.22 36.21 36.23 36.22 36.31 36.58 37.00 37.62 38.63 39.39 39.68 39.93 40.20 40.31 40.37 40.55 41.09 42.51 44.00 45.24 46.08 46.58
27.53 27.41 27.10 26.69 26.69 26.67 26.68 26.65 26.50 26.58 26.78 27.42 27.69 27.93 28.21 28.30 28.34 28.39 28.39 28.36 28.51 28.88 29.44 29.97 30.43 31.12 31.84 32.25 32.41 32.71 33.27 34.19 35.08 34.81 34.19 34.15 34.29 34.44 34.74 34.97 35.16 35.31 35.37 35.37 35.55 35.64 35.77 36.04 35.98 36.00 36.19 36.45 36.84 37.42 38.15 39.12 39.67 40.10 40.46 40.67 40.68 40.55 40.65 41.35 42.90 44.39 45.81 46.57 47.11
26.69 26.84 26.80 26.64 26.53 26.51 26.55 26.65 26.63 26.57 26.75 27.17 27.29 27.32 27.41 27.56 27.60 27.57 27.50 27.61 28.25 28.96 29.87 30.58 30.98 31.38 31.70 31.76 32.00 32.48 33.11 33.96 34.53 34.28 33.77 33.59 33.84 34.17 34.45 34.77 35.01 34.99 34.91 35.03 35.24 35.60 35.83 35.99 35.72 35.84 36.29 36.90 37.26 38.12 39.16 40.10 40.38 40.67 40.91 40.98 41.11 41.45 41.99 42.84 43.98 45.14 45.99 46.31 46.44
26.17 26.27 26.23 26.13 26.05 25.93 25.84 25.96 26.30 26.51 26.71 26.94 26.90 26.75 26.82 27.10 27.01 26.93 27.04 27.51 28.15 28.95 29.78 30.41 30.47 30.57 30.79 30.99 31.46 32.16 32.93 33.71 33.86 33.80 33.57 33.32 33.53 33.81 34.02 34.25 34.26 34.42 34.50 34.69 35.09 35.40 35.68 35.79 35.36 35.65 36.33 37.30 38.00 38.99 39.88 40.90 41.17 41.20 41.08 41.03 41.44 41.92 42.55 43.02 44.34 45.18 45.63 45.81 45.55
25.82 25.85 25.78 25.65 25.56 25.43 25.35 25.48 25.79 26.03 26.26 26.37 26.38 26.35 26.43 26.74 26.77 26.78 26.97 27.48 27.92 28.49 29.07 29.51 29.50 29.71 30.14 30.56 30.97 31.65 32.46 33.22 33.37 33.44 33.32 33.10 33.16 33.27 33.40 33.52 33.68 33.90 34.11 34.45 34.68 34.94 35.15 35.27 35.18 35.44 36.05 36.78 37.58 38.80 40.07 41.07 41.58 41.62 41.45 41.42 41.68 42.20 42.71 43.26 44.07 44.78 45.18 45.41 45.28
25.06 25.23 25.32 25.26 25.14 25.06 25.06 25.13 25.37 25.61 25.70 25.85 25.99 26.15 26.43 26.62 26.58 26.46 26.58 26.89 27.69 28.25 28.57 28.67 29.09 29.61 30.05 30.42 30.79 31.42 32.17 32.97 33.00 32.98 32.85 32.73 32.63 32.69 32.80 32.83 33.08 33.24 33.69 34.22 34.42 34.68 34.97 35.01 34.97 35.16 35.50 36.00 36.49 37.51 38.67 39.84 40.68 41.43 41.84 41.89 41.78 41.88 42.32 43.01 43.89 44.60 45.18 45.28 45.05
24.11 24.29 24.40 24.43 24.47 24.66 24.77 24.72 25.01 25.37 25.57 25.57 25.85 26.10 26.48 27.08 26.60 26.30 26.31 26.78 27.45 27.77 27.93 28.18 28.80 29.29 29.76 30.19 30.67 31.45 32.27 32.99 32.88 32.75 32.52 32.45 32.39 32.33 32.16 32.06 32.27 32.61 32.98 33.56 34.17 34.78 35.03 34.84 34.51 34.56 34.84 35.23 35.61 36.38 37.17 38.01 38.62 39.82 41.16 42.41 42.57 42.55 42.64 42.99 44.03 44.79 45.23 45.23 44.83
23.41 23.57 23.67 23.54 23.77 23.99 24.18 24.05 24.48 24.92 25.29 25.29 25.61 25.81 25.96 26.28 26.00 26.07 26.37 26.85 26.71 26.84 27.27 27.94 28.43 28.87 29.36 29.97 30.65 31.46 32.31 32.79 32.56 32.41 32.31 32.20 32.18 31.93 31.70 31.72 31.82 32.10 32.42 32.83 33.85 34.48 34.63 34.42 33.97 34.00 34.22 34.54 35.19 35.75 36.12 36.60 36.94 37.59 38.83 40.91 42.22 42.73 43.13 43.76 44.65 45.00 44.96 44.60 44.29
22.82 23.00 23.10 23.07 23.12 23.20 23.28 23.37 23.77 24.25 24.70 24.91 25.19 25.36 25.41 25.45 25.54 25.91 26.15 26.15 25.90 26.25 26.98 27.81 28.20 28.64 29.14 29.74 30.60 31.61 32.37 32.60 32.27 32.01 31.88 31.82 31.86 31.94 31.87 31.89 31.87 31.97 32.27 32.64 33.46 34.00 34.30 34.11 33.90 33.76 33.80 34.05 34.71 35.15 35.31 35.45 35.78 35.94 36.46 37.31 38.56 39.89 41.23 42.26 43.07 43.56 43.79 43.66 43.57
22.30 22.36 22.31 22.37 22.46 22.37 22.43 22.72 23.19 23.73 24.17 24.47 24.78 25.04 25.12 25.28 25.61 25.78 25.66 25.30 25.41 25.88 26.52 27.34 28.08 28.58 29.02 29.64 30.54 31.49 32.14 32.30 31.91 31.53 31.33 31.13 31.29 31.48 31.78 31.95 31.95 32.20 32.35 32.52 33.14 33.57 33.91 33.82 33.94 33.96 34.04 33.85 34.12 34.41 34.70 34.74 34.75 34.78 34.94 35.27 35.79 36.24 36.90 37.84 39.31 40.70 41.91 42.41 42.63
21.76 21.67 21.53 21.63 21.67 21.66 21.68 22.04 22.67 23.21 23.69 24.09 24.50 24.74 24.97 25.01 25.42 25.42 25.22 24.80 25.07 25.48 26.02 26.66 27.69 28.42 29.08 29.50 30.42 31.49 32.17 32.01 31.59 31.23 30.92 30.86 30.80 30.94 31.14 31.49 31.90 32.29 32.50 32.58 33.00 33.54 33.83 33.68 33.75 33.75 33.74 33.74 33.68 33.90 34.23 34.34 34.22 34.16 34.11 34.31 34.67 35.12 35.66 36.46 37.44 38.70 39.90 40.98 41.65
20.97 20.94 20.98 21.06 21.04 21.03 21.11 21.57 22.18 22.80 23.35 23.70 24.25 24.63 24.68 24.62 25.02 25.09 24.92 24.53 24.82 25.17 25.53 25.82 26.82 27.88 28.90 29.53 30.56 31.59 32.16 31.87 31.35 30.93 30.61 30.47 30.55 30.63 30.79 31.22 31.71 32.10 32.44 32.66 33.08 33.79 34.30 34.12 33.72 33.64 33.57 33.52 33.39 33.55 33.68 34.03 34.02 34.05 34.07 33.96 34.09 34.31 34.76 35.38 36.10 36.98 38.00 39.22 40.43
20.24 20.37 20.49 20.47 20.54 20.52 20.73 21.18 21.80 22.43 23.04 23.52 24.19 24.51 24.50 24.37 24.61 24.71 24.65 24.34 24.49 24.78 25.04 25.25 26.13 27.13 28.20 29.46 30.86 31.82 32.14 31.59 31.04 30.60 30.30 30.22 30.47 30.71 31.01 31.36 31.55 31.86 32.21 32.48 32.81 33.59 34.33 34.27 33.92 33.60 33.48 33.46 33.28 33.30 33.33 33.63 33.75 33.96 33.99 33.93 33.88 34.00 34.18 34.63 34.98 35.41 36.03 37.10 38.39
19.68 19.86 20.01 20.11 20.09 20.22 20.51 20.92 21.61 22.21 22.79 23.48 24.07 24.33 24.36 24.29 24.25 24.36 24.42 24.38 24.19 24.34 24.66 25.03 25.89 26.71 27.59 28.99 30.85 31.93 32.15 31.46 30.97 30.55 30.46 30.43 30.72 30.89 31.09 31.30 31.34 31.63 31.97 32.10 32.43 33.26 34.10 34.16 33.87 33.68 33.52 33.41 33.34 33.30 33.16 33.24 33.36 33.53 33.78 33.82 33.76 33.75 33.96 34.27 34.26 34.38 34.72 35.38 36.36
19.22 19.47 19.79 19.96 20.09 20.31 20.59 21.00 21.58 22.26 22.79 23.47 23.94 24.21 24.33 24.35 24.21 24.08 24.12 24.23 24.06 24.23 24.50 24.87 25.74 26.52 27.40 28.50 30.46 31.68 32.12 31.49 30.92 30.65 30.52 30.57 30.69 30.85 30.94 31.10 31.25 31.54 31.83 31.87 32.14 33.09 33.99 34.07 33.67 33.48 33.32 33.34 33.35 33.33 33.22 33.03 33.18 33.27 33.45 33.57 33.55 33.62 33.70 33.87 33.90 34.01 34.09 34.39 35.11
18.83 19.20 19.57 19.97 20.28 20.67 21.06 21.61 22.11 22.58 23.13 23.76 24.10 24.37 24.53 24.62 24.32 23.91 23.65 23.78 24.03 24.19 24.32 24.39 25.22 26.20 27.31 28.40 29.86 31.18 31.76 31.35 30.83 30.57 30.43 30.51 30.67 30.79 30.86 30.85 30.96 31.25 31.54 31.48 31.87 33.00 34.07 34.27 33.63 33.19 32.95 33.08 33.15 33.12 33.11 32.97 32.91 33.12 33.30 33.37 33.44 33.46 33.49 33.52 33.73 33.89 33.97 34.18 34.53
18.75 19.07 19.49 20.03 20.44 20.90 21.36 22.01 22.52 22.99 23.48 24.00 24.22 24.41 24.50 24.58 24.26 23.77 23.43 23.38 23.72 23.98 24.15 24.30 24.78 25.70 26.86 28.12 29.31 30.24 30.86 30.85 30.44 30.10 30.02 30.25 30.49 30.62 30.69 30.63 30.70 30.92 31.00 30.92 31.36 32.81 34.18 34.52 33.59 32.88 32.56 32.58 32.54 32.68 32.81 32.78 32.53 32.60 32.72 32.91 33.16 33.36 33.44 33.37 33.49 33.64 33.82 33.93 34.09
18.78 19.20 19.70 20.27 20.74 21.14 21.60 22.23 22.84 23.32 23.71 23.91 24.09 24.28 24.36 24.20 23.81 23.41 23.17 23.29 23.53 23.77 23.93 24.07 24.48 25.28 26.32 27.45 28.46 29.32 29.91 30.24 29.87 29.68 29.59 29.85 30.20 30.49 30.54 30.42 30.44 30.51 30.52 30.31 30.92 32.61 34.33 34.77 33.63 32.80 32.23 32.08 32.04 32.18 32.29 32.10 31.77 31.80 31.90 31.87 32.46 33.09 33.45 33.36 33.33 33.42 33.52 33.55 33.70
19.05 19.58 20.06 20.57 21.03 21.52 22.14 22.65 23.10 23.40 23.62 23.87 24.06 24.24 24.13 23.70 23.24 23.03 22.94 23.17 23.42 23.47 23.47 23.71 24.20 24.98 25.92 26.99 27.76 28.52 29.11 29.51 29.37 29.28 29.24 29.49 29.80 30.17 30.34 30.23 30.20 30.14 30.02 29.70 30.45 32.65 34.76 35.16 33.96 33.02 32.28 31.73 31.79 31.91 31.91 31.49 31.18 31.05 31.13 31.14 31.63 32.37 33.04 33.23 33.15 33.26 33.38 33.48 33.46
19.28 19.70 20.16 20.87 21.42 22.09 22.77 23.17 23.23 23.32 23.52 23.74 24.05 24.04 23.72 22.98 22.69 22.60 22.66 22.82 23.08 23.16 23.29 23.67 24.20 24.89 25.90 26.88 27.55 28.05 28.42 28.64 28.67 28.87 28.95 29.05 29.42 29.73 29.82 29.66 29.76 29.69 29.46 29.11 30.25 32.99 35.50 35.67 34.45 33.35 32.43 31.54 31.49 31.51 31.45 30.90 30.82 30.58 30.52 30.58 31.10 31.58 32.16 32.68 33.02 33.19 33.26 33.41 33.48
19.41 19.87 20.38 21.09 21.56 22.21 22.70 22.99 23.09 23.16 23.40 23.67 23.89 23.62 23.01 22.26 22.09 22.11 22.22 22.39 22.55 22.77 23.17 23.84 24.38 25.15 25.93 26.85 27.29 27.56 27.65 27.72 27.79 28.01 28.28 28.67 28.96 29.13 29.12 29.10 29.26 29.19 29.03 28.90 31.48 34.53 36.66 36.23 34.77 33.44 32.31 31.49 31.16 30.98 30.96 30.64 30.47 30.25 30.08 30.07 30.46 30.95 31.44 32.04 32.48 32.63 32.75 33.04 33.17
19.63 20.07 20.50 20.79 21.49 22.05 22.47 22.53 22.66 22.90 23.27 23.83 23.65 22.95 22.14 21.51 21.49 21.58 21.69 21.84 22.09 22.48 23.07 23.87 24.52 25.13 25.78 26.43 26.83 27.01 27.16 27.26 27.31 27.46 27.71 27.98 28.27 28.40 28.46 28.44 28.62 28.63 28.81 29.38 33.81 36.98 38.20 37.19 35.58 33.87 32.31 31.37 30.94 30.74 30.62 30.53 30.26 30.09 29.91 29.86 30.05 30.35 30.80 31.39 31.88 32.11 32.34 32.68 32.97
19.72 20.02 20.36 20.58 21.28 21.71 21.93 21.92 22.22 22.69 23.20 23.69 23.00 22.08 21.37 21.02 21.15 21.23 21.17 21.26 21.60 22.22 22.99 23.96 24.38 25.03 25.56 25.58 26.15 26.42 26.67 26.88 27.22 27.28 27.28 27.22 27.38 27.49 27.70 27.94 28.07 28.21 29.01 31.14 34.81 37.39 38.48 37.87 36.74 35.13 33.39 31.66 30.94 30.50 30.30 30.03 30.09 30.01 29.88 29.75 29.74 29.90 30.22 30.67 31.17 31.59 32.02 32.43 32.87
19.30 19.60 19.88 20.31 20.83 21.01 21.14 21.35 21.89 22.52 22.95 23.14 22.16 21.37 20.77 20.69 20.71 20.83 20.88 20.83 21.30 22.05 22.91 23.85 24.11 24.68 25.10 24.71 25.22 25.48 25.73 26.21 26.89 27.06 26.99 26.86 26.77 26.70 26.80 27.21 27.71 28.27 29.58 32.40 35.17 37.22 38.28 37.99 36.78 35.71 34.37 32.53 31.32 30.54 30.01 29.76 29.83 29.83 29.73 29.65 29.52 29.57 29.72 30.13 30.65 31.09 31.59 31.95 32.50
18.79 19.10 19.56 19.97 20.09 20.21 20.47 20.88 21.52 22.14 22.48 22.30 21.45 20.80 20.52 20.47 20.37 20.40 20.39 20.52 21.10 21.84 22.61 23.30 23.65 23.93 24.08 23.99 24.32 24.69 25.13 25.69 26.22 26.58 26.68 26.63 26.45 26.32 26.34 26.70 27.01 28.16 30.16 33.32 35.20 36.80 37.98 38.08 36.38 35.47 34.60 33.10 31.63 30.72 30.19 29.57 29.46 29.41 29.41 29.41 29.32 29.28 29.52 29.94 30.52 30.89 31.12 31.40 32.04
18.70 19.00 19.25 19.30 19.51 19.73 20.01 20.17 20.71 21.25 21.55 21.47 20.86 20.47 20.23 20.04 20.03 19.99 20.02 20.09 20.59 21.21 21.82 22.28 22.81 22.98 23.02 23.16 23.78 24.36 24.89 25.43 26.05 26.29 26.29 26.03 25.89 25.90 26.07 26.36 26.46 27.78 30.20 33.57 34.98 36.57 37.68 37.89 35.89 35.06 34.53 33.59 31.71 30.54 29.98 29.45 29.16 28.94 28.93 28.83 28.87 28.97 29.26 29.68 30.11 30.63 30.99 31.40 31.79
18.60 18.74 18.88 18.85 18.98 19.13 19.37 19.58 20.04 20.47 20.76 20.69 20.33 20.03 19.75 19.57 19.57 19.49 19.44 19.49 20.06 20.77 21.52 22.05 22.09 22.12 22.30 22.76 23.55 24.12 24.62 25.29 25.90 26.12 26.00 25.58 25.47 25.60 25.86 26.22 25.82 27.04 29.49 33.07 34.63 36.38 37.49 37.17 35.50 34.78 34.39 33.80 31.76 30.44 29.57 29.27 28.74 28.40 28.31 28.29 28.25 28.40 28.60 29.18 29.61 30.12 30.68 31.29 31.64
18.34 18.54 18.54 18.47 18.46 18.61 18.88 19.39 19.90 20.21 20.25 20.04 19.70 19.42 19.15 18.97 18.95 18.92 18.97 19.26 20.11 21.14 21.93 21.97 21.56 21.68 22.18 22.95 23.54 23.93 24.44 25.09 25.50 25.73 25.69 25.42 25.60 25.64 25.62 25.49 25.24 26.47 29.01 32.65 34.37 36.21 37.34 36.63 35.27 34.53 34.17 33.58 31.64 30.14 29.13 28.66 28.18 27.85 27.62 27.54 27.61 27.73 28.11 28.65 29.16 29.56 30.15 31.14 31.52
18.16 18.33 18.28 18.14 18.09 18.29 18.66 19.20 19.64 19.88 19.90 19.64 19.10 18.77 18.50 18.40 18.64 18.86 19.15 19.64 20.33 20.84 21.05 20.99 20.95 21.34 21.88 22.51 22.98 23.61 24.23 24.58 25.03 25.34 25.46 25.41 25.11 25.13 25.12 25.02 24.69 26.05 28.71 32.36 34.15 35.89 36.77 36.01 34.84 34.23 33.76 33.07 31.17 29.63 28.60 28.17 27.82 27.53 27.29 27.17 27.18 27.30 27.62 28.15 28.57 28.95 29.67 31.11 31.58
17.99 18.11 18.03 17.86 17.84 18.06 18.48 18.92 19.29 19.47 19.45 19.14 18.67 18.35 18.24 18.22 18.59 18.84 19.19 19.76 20.23 20.23 20.09 20.11 20.43 20.82 21.23 21.61 22.21 22.93 23.75 24.42 24.67 25.12 25.51 25.41 25.13 24.94 24.79 24.56 24.16 26.04 29.12 32.08 33.83 35.60 36.41 35.28 34.15 33.42 32.83 32.19 30.21 28.87 28.14 27.90 27.72 27.47 27.28 27.14 27.29 27.44 27.64 28.06 28.31 28.50 29.17 30.97 31.75
17.68 17.82 17.77 17.69 17.73 17.91 18.15 18.50 18.92 19.11 19.01 18.66 18.37 18.20 18.14 18.07 18.15 18.39 18.84 19.68 20.01 20.01 19.97 20.01 20.37 20.78 21.20 21.55 21.91 22.56 23.49 24.35 24.46 24.44 24.51 24.62 24.64 24.65 24.42 23.89 23.67 26.14 29.34 31.61 33.17 35.06 36.02 34.84 33.25 32.46 31.78 30.97 29.13 28.10 27.56 27.43 27.37 27.25 27.22 27.22 27.48 27.57 27.73 28.06 28.38 28.49 29.10 31.04 31.86
17.52 17.55 17.44 17.42 17.55 17.70 17.86 18.13 18.51 18.66 18.61 18.24 18.03 17.98 17.95 18.00 18.01 18.22 18.81 19.82 20.11 19.93 19.69 19.96 20.52 21.02 21.36 21.75 22.04 22.62 23.28 23.77 23.77 23.78 23.83 23.94 24.02 24.10 23.98 23.61 23.40 25.70 28.82 30.79 32.20 34.09 35.44 34.66 32.70 31.69 30.92 29.52 28.04 27.34 27.06 26.96 27.04 27.10 27.14 27.28 27.47 27.49 27.63 27.95 28.53 28.72 29.36 31.25 32.16
17.51 17.38 17.17 17.10 17.26 17.37 17.58 17.79 18.04 18.15 18.11 17.84 17.71 17.67 17.78 17.86 18.16 18.52 19.19 20.11 19.82 19.36 19.13 19.53 20.23 20.59 20.90 21.26 21.75 22.55 23.22 23.28 23.17 23.20 23.34 23.57 23.53 23.44 23.42 23.27 23.11 24.95 27.75 29.97 31.46 33.19 34.62 34.59 32.24 31.14 30.09 28.25 27.13 26.83 26.82 26.78 26.89 27.03 27.14 27.28 27.39 27.47 27.65 28.06 28.70 28.97 29.58 31.25 32.37
17.54 17.37 17.18 16.94 17.02 17.14 17.29 17.51 17.66 17.68 17.64 17.57 17.63 17.64 17.69 17.81 18.11 18.60 19.20 19.80 18.96 18.52 18.55 19.12 19.64 19.99 20.30 20.74 21.41 22.23 22.94 23.32 23.01 22.84 22.88 23.28 23.19 23.15 23.04 22.89 22.66 23.97 26.31 29.09 30.74 32.51 34.01 34.94 32.16 30.69 29.42 27.40 26.67 26.50 26.53 26.63 26.79 26.86 26.99 26.97 27.28 27.48 27.75 28.19 28.78 29.10 29.72 31.05 32.78
17.51 17.41 17.25 16.98 16.89 16.97 17.14 17.29 17.37 17.36 17.40 17.60 17.80 17.87 17.99 17.99 18.01 18.45 19.03 19.51 18.46 17.98 18.10 18.64 19.19 19.59 20.06 20.88 21.43 22.10 22.79 23.11 22.96 22.59 22.39 22.58 22.94 23.08 22.92 22.48 22.40 23.31 25.25 28.24 30.13 31.84 33.43 35.11 32.05 30.56 29.21 27.09 26.45 26.36 26.40 26.42 26.46 26.50 26.45 26.54 27.04 27.45 27.80 28.27 28.67 29.05 29.70 30.76 33.52
17.63 17.55 17.35 17.09 16.98 16.97 17.01 17.10 17.19 17.36 17.55 17.70 17.87 17.98 18.10 18.14 18.09 18.39 18.81 19.09 18.37 18.06 18.09 18.48 18.95 19.53 20.22 21.12 21.39 21.68 22.09 22.51 22.61 22.43 22.26 22.10 22.91 23.56 23.57 22.34 22.22 23.03 24.84 27.61 29.57 31.27 32.89 34.95 32.10 30.73 29.45 27.57 26.71 26.45 26.49 26.39 26.29 26.12 26.05 26.00 26.35 26.89 27.43 28.07 28.43 28.80 29.34 30.13 33.32
17.92 17.78 17.64 17.37 17.13 17.01 16.97 16.98 17.24 17.57 17.88 17.98 17.90 18.05 18.20 18.37 18.37 18.50 18.63 18.63 18.36 18.33 18.49 18.64 19.06 19.56 20.24 21.12 21.12 21.17 21.39 21.76 21.84 21.90 22.05 22.21 23.20 24.21 24.33 22.56 22.19 22.89 24.50 27.01 28.99 30.77 32.62 34.87 32.84 31.20 29.61 27.68 26.88 26.63 26.63 26.42 26.08 25.93 25.87 25.83 25.91 26.18 26.73 27.49 28.10 28.48 28.84 29.42 31.45
18.07 18.02 17.82 17.58 17.33 17.19 17.05 17.06 17.44 17.89 18.20 18.25 18.13 18.45 18.81 19.02 18.55 18.26 17.99 17.95 18.06 18.33 18.61 18.89 19.12 19.41 19.81 20.49 20.68 20.74 20.78 20.98 21.18 21.37 21.68 22.30 23.03 23.82 23.96 22.57 22.33 22.72 23.89 25.90 28.15 30.37 32.50 34.31 33.79 32.49 30.56 28.17 27.13 26.70 26.59 26.24 25.72 25.47 25.49 25.79 25.93 26.01 26.24 26.58 27.31 27.80 28.30 28.88 29.80
MSLP
1030.38 1030.22 1030.10 1029.86 1029.66 1029.46 1029.22 1028.98 1028.78 1028.54 1028.38 1028.10 1027.86 1027.50 1027.18 1026.82 1026.42 1026.10 1025.90 1025.70 1025.46 1025.18 1024.86 1024.50 1024.18 1023.86 1023.54 1023.26 1022.98 1022.66 1022.30 1021.94 1021.62 1021.30 1020.98 1020.66 1020.38 1020.10 1019.78 1019.50 1019.22 1018.94 1018.66 1018.30 1017.94 1017.58 1017.22 1016.90 1016.58 1016.22 1015.86 1015.50 1015.10 1014.74 1014.38 1014.10 1013.78 1013.50 1013.22 1012.98 1012.78 1012.54 1012.34 1012.14 1011.86 1011.58 1011.34 1011.06 1010.90
1030.42 1030.26 1030.18 1030.02 1029.82 1029.62 1029.38 1029.10 1028.86 1028.66 1028.50 1028.26 1027.94 1027.62 1027.26 1026.94 1026.58 1026.30 1026.06 1025.86 1025.66 1025.38 1025.02 1024.62 1024.26 1023.90 1023.58 1023.26 1022.94 1022.62 1022.30 1021.94 1021.54 1021.22 1020.90 1020.58 1020.30 1019.98 1019.70 1019.42 1019.10 1018.78 1018.50 1018.18 1017.82 1017.46 1017.06 1016.70 1016.38 1016.02 1015.62 1015.22 1014.86 1014.50 1014.14 1013.78 1013.50 1013.22 1012.94 1012.66 1012.50 1012.30 1012.06 1011.86 1011.62 1011.38 1011.10 1010.82 1010.62
1030.50 1030.38 1030.22 1030.06 1029.90 1029.70 1029.50 1029.22 1028.98 1028.78 1028.58 1028.30 1028.02 1027.66 1027.38 1027.06 1026.74 1026.46 1026.22 1025.98 1025.74 1025.42 1025.06 1024.66 1024.26 1023.94 1023.58 1023.22 1022.94 1022.62 1022.26 1021.90 1021.50 1021.14 1020.78 1020.50 1020.22 1019.94 1019.62 1019.34 1018.98 1018.66 1018.38 1018.06 1017.70 1017.34 1016.94 1016.58 1016.22 1015.78 1015.38 1014.98 1014.62 1014.22 1013.82 1013.46 1013.22 1012.94 1012.66 1012.38 1012.18 1011.98 1011.78 1011.54 1011.30 1011.06 1010.78 1010.50 1010.26
1030.58 1030.46 1030.30 1030.10 1029.94 1029.78 1029.62 1029.38 1029.10 1028.90 1028.62 1028.30 1027.98 1027.70 1027.38 1027.10 1026.86 1026.62 1026.34 1026.06 1025.74 1025.38 1025.06 1024.66 1024.26 1023.94 1023.54 1023.22 1022.90 1022.58 1022.22 1021.82 1021.42 1021.06 1020.70 1020.38 1020.10 1019.78 1019.50 1019.22 1018.86 1018.54 1018.22 1017.90 1017.54 1017.18 1016.78 1016.42 1016.02 1015.62 1015.18 1014.78 1014.38 1014.02 1013.62 1013.22 1012.94 1012.66 1012.38 1012.10 1011.94 1011.78 1011.54 1011.30 1011.06 1010.78 1010.46 1010.14 1009.90
1030.66 1030.54 1030.42 1030.22 1030.10 1029.90 1029.70 1029.50 1029.26 1028.98 1028.70 1028.38 1028.06 1027.70 1027.42 1027.18 1026.94 1026.66 1026.38 1026.06 1025.70 1025.38 1025.02 1024.66 1024.30 1023.90 1023.54 1023.22 1022.86 1022.50 1022.10 1021.66 1021.26 1020.94 1020.62 1020.30 1020.02 1019.70 1019.42 1019.06 1018.78 1018.42 1018.10 1017.78 1017.42 1017.02 1016.62 1016.22 1015.82 1015.38 1014.98 1014.58 1014.18 1013.74 1013.30 1012.94 1012.62 1012.30 1012.06 1011.86 1011.66 1011.50 1011.30 1011.06 1010.86 1010.50 1010.18 1009.86 1009.58
1030.78 1030.62 1030.50 1030.38 1030.22 1030.02 1029.78 1029.58 1029.38 1029.10 1028.78 1028.46 1028.10 1027.78 1027.54 1027.26 1027.02 1026.78 1026.46 1026.10 1025.66 1025.34 1024.98 1024.62 1024.22 1023.90 1023.54 1023.22 1022.82 1022.42 1021.98 1021.54 1021.18 1020.82 1020.50 1020.22 1019.90 1019.62 1019.30 1018.94 1018.66 1018.38 1018.06 1017.66 1017.30 1016.86 1016.46 1016.10 1015.70 1015.26 1014.82 1014.38 1013.90 1013.38 1012.98 1012.62 1012.26 1011.98 1011.74 1011.50 1011.34 1011.18 1011.02 1010.78 1010.50 1010.22 1009.90 1009.62 1009.38
1030.98 1030.78 1030.62 1030.46 1030.30 1030.10 1029.90 1029.66 1029.38 1029.10 1028.82 1028.50 1028.14 1027.86 1027.62 1027.38 1027.10 1026.82 1026.50 1026.14 1025.70 1025.30 1024.94 1024.58 1024.26 1023.94 1023.58 1023.22 1022.82 1022.38 1021.94 1021.50 1021.10 1020.78 1020.50 1020.18 1019.90 1019.54 1019.22 1018.94 1018.66 1018.34 1017.98 1017.62 1017.22 1016.78 1016.38 1016.06 1015.62 1015.14 1014.66 1014.22 1013.70 1013.18 1012.66 1012.30 1011.94 1011.66 1011.38 1011.22 1011.02 1010.86 1010.74 1010.50 1010.26 1009.98 1009.70 1009.42 1009.26
1031.14 1030.94 1030.78 1030.62 1030.38 1030.18 1029.94 1029.70 1029.46 1029.18 1028.82 1028.50 1028.22 1027.94 1027.74 1027.46 1027.22 1026.90 1026.50 1026.10 1025.70 1025.34 1024.98 1024.62 1024.30 1023.94 1023.62 1023.22 1022.82 1022.38 1021.94 1021.50 1021.10 1020.78 1020.50 1020.22 1019.94 1019.58 1019.26 1018.94 1018.66 1018.34 1017.98 1017.62 1017.22 1016.78 1016.34 1015.98 1015.62 1015.18 1014.70 1014.22 1013.70 1013.14 1012.62 1012.14 1011.74 1011.38 1011.06 1010.86 1010.74 1010.62 1010.50 1010.30 1010.06 1009.78 1009.54 1009.30 1009.10
1031.22 1031.02 1030.86 1030.66 1030.50 1030.26 1030.02 1029.78 1029.50 1029.22 1028.90 1028.54 1028.30 1028.10 1027.82 1027.50 1027.22 1026.90 1026.50 1026.14 1025.74 1025.38 1025.02 1024.66 1024.30 1023.94 1023.58 1023.22 1022.82 1022.38 1021.94 1021.50 1021.14 1020.82 1020.50 1020.26 1019.94 1019.66 1019.38 1019.06 1018.70 1018.38 1017.98 1017.62 1017.22 1016.78 1016.38 1015.98 1015.62 1015.22 1014.78 1014.38 1013.86 1013.30 1012.78 1012.30 1011.74 1011.26 1010.90 1010.62 1010.46 1010.38 1010.22 1010.02 1009.78 1009.54 1009.34 1009.10 1008.94
1031.38 1031.10 1030.94 1030.70 1030.50 1030.30 1030.10 1029.78 1029.50 1029.22 1028.90 1028.58 1028.38 1028.14 1027.86 1027.58 1027.30 1026.98 1026.66 1026.22 1025.82 1025.46 1025.06 1024.66 1024.30 1023.94 1023.54 1023.14 1022.78 1022.38 1021.94 1021.54 1021.22 1020.90 1020.62 1020.30 1020.06 1019.78 1019.50 1019.18 1018.82 1018.42 1018.06 1017.66 1017.22 1016.78 1016.38 1016.02 1015.66 1015.26 1014.90 1014.50 1013.98 1013.50 1012.94 1012.46 1011.94 1011.42 1010.94 1010.54 1010.26 1010.06 1009.90 1009.66 1009.46 1009.22 1009.02 1008.86 1008.78
1031.50 1031.26 1031.06 1030.86 1030.66 1030.42 1030.18 1029.86 1029.50 1029.22 1028.90 1028.62 1028.38 1028.14 1027.90 1027.66 1027.34 1027.02 1026.70 1026.38 1025.94 1025.50 1025.06 1024.70 1024.34 1023.94 1023.54 1023.14 1022.70 1022.30 1021.94 1021.58 1021.22 1020.94 1020.66 1020.38 1020.10 1019.82 1019.58 1019.26 1018.90 1018.50 1018.10 1017.66 1017.26 1016.82 1016.42 1016.10 1015.70 1015.30 1014.90 1014.50 1014.06 1013.58 1013.10 1012.66 1012.22 1011.74 1011.26 1010.78 1010.38 1010.02 1009.70 1009.42 1009.14 1008.94 1008.82 1008.74 1008.66
1031.62 1031.42 1031.22 1031.02 1030.82 1030.54 1030.26 1029.94 1029.54 1029.22 1028.94 1028.66 1028.38 1028.14 1027.90 1027.66 1027.38 1027.06 1026.74 1026.38 1025.98 1025.54 1025.10 1024.70 1024.38 1023.94 1023.54 1023.10 1022.70 1022.30 1021.90 1021.58 1021.26 1020.98 1020.66 1020.42 1020.14 1019.90 1019.62 1019.26 1018.94 1018.54 1018.14 1017.74 1017.34 1016.94 1016.50 1016.14 1015.78 1015.38 1014.98 1014.58 1014.18 1013.74 1013.30 1012.82 1012.38 1011.98 1011.58 1011.22 1010.82 1010.42 1009.98 1009.62 1009.38 1009.14 1008.98 1008.82 1008.66
1031.78 1031.58 1031.38 1031.14 1030.94 1030.66 1030.34 1029.98 1029.66 1029.30 1028.98 1028.70 1028.46 1028.22 1027.94 1027.66 1027.38 1027.10 1026.78 1026.42 1026.02 1025.58 1025.18 1024.78 1024.38 1023.94 1023.54 1023.10 1022.70 1022.26 1021.90 1021.54 1021.26 1020.98 1020.70 1020.46 1020.18 1019.94 1019.62 1019.26 1018.94 1018.54 1018.18 1017.78 1017.42 1017.02 1016.62 1016.22 1015.86 1015.50 1015.06 1014.66 1014.30 1013.94 1013.50 1013.06 1012.66 1012.22 1011.86 1011.50 1011.14 1010.78 1010.46 1010.18 1009.90 1009.58 1009.26 1008.98 1008.74
1031.94 1031.70 1031.50 1031.22 1030.98 1030.70 1030.38 1030.06 1029.70 1029.38 1029.06 1028.78 1028.50 1028.22 1027.94 1027.66 1027.38 1027.14 1026.82 1026.50 1026.10 1025.66 1025.26 1024.82 1024.38 1023.98 1023.58 1023.10 1022.70 1022.22 1021.82 1021.54 1021.22 1020.94 1020.70 1020.46 1020.18 1019.90 1019.58 1019.22 1018.82 1018.50 1018.22 1017.86 1017.50 1017.10 1016.70 1016.34 1015.98 1015.62 1015.22 1014.82 1014.42 1014.02 1013.66 1013.22 1012.86 1012.46 1012.10 1011.78 1011.38 1011.06 1010.78 1010.50 1010.22 1009.90 1009.54 1009.22 1008.86
1031.98 1031.78 1031.54 1031.34 1031.06 1030.78 1030.50 1030.14 1029.78 1029.46 1029.10 1028.82 1028.54 1028.30 1028.02 1027.70 1027.46 1027.22 1026.90 1026.50 1026.14 1025.74 1025.38 1024.94 1024.50 1024.02 1023.58 1023.10 1022.66 1022.22 1021.78 1021.50 1021.22 1020.94 1020.66 1020.38 1020.10 1019.82 1019.50 1019.10 1018.78 1018.50 1018.22 1017.86 1017.50 1017.14 1016.78 1016.38 1016.10 1015.74 1015.38 1014.94 1014.54 1014.14 1013.78 1013.42 1013.06 1012.66 1012.34 1012.02 1011.70 1011.38 1011.10 1010.82 1010.54 1010.22 1009.86 1009.50 1009.10
1032.02 1031.78 1031.58 1031.38 1031.10 1030.86 1030.58 1030.26 1029.94 1029.54 1029.22 1028.90 1028.66 1028.38 1028.06 1027.78 1027.50 1027.22 1026.94 1026.58 1026.18 1025.78 1025.38 1025.02 1024.54 1024.10 1023.58 1023.06 1022.62 1022.14 1021.78 1021.46 1021.22 1020.94 1020.66 1020.38 1020.10 1019.78 1019.46 1019.06 1018.74 1018.46 1018.14 1017.82 1017.50 1017.14 1016.78 1016.42 1016.14 1015.78 1015.42 1015.06 1014.66 1014.30 1013.94 1013.54 1013.22 1012.86 1012.50 1012.22 1011.94 1011.66 1011.34 1011.06 1010.78 1010.50 1010.22 1009.86 1009.50
1032.06 1031.82 1031.62 1031.38 1031.14 1030.90 1030.62 1030.34 1030.02 1029.66 1029.30 1029.02 1028.70 1028.38 1028.10 1027.86 1027.54 1027.26 1026.94 1026.66 1026.26 1025.86 1025.46 1025.06 1024.62 1024.14 1023.66 1023.10 1022.58 1022.10 1021.74 1021.50 1021.26 1020.98 1020.70 1020.42 1020.10 1019.78 1019.46 1019.06 1018.74 1018.46 1018.14 1017.82 1017.50 1017.10 1016.74 1016.42 1016.14 1015.82 1015.50 1015.10 1014.74 1014.38 1014.02 1013.66 1013.34 1012.98 1012.66 1012.38 1012.10 1011.78 1011.50 1011.22 1011.02 1010.78 1010.50 1010.18 1009.82
1032.10 1031.86 1031.66 1031.38 1031.14 1030.90 1030.66 1030.34 1030.02 1029.70 1029.38 1029.06 1028.74 1028.46 1028.18 1027.94 1027.62 1027.30 1026.94 1026.66 1026.30 1025.90 1025.46 1025.06 1024.66 1024.22 1023.70 1023.22 1022.66 1022.18 1021.82 1021.58 1021.34 1021.06 1020.78 1020.50 1020.18 1019.86 1019.50 1019.10 1018.74 1018.42 1018.10 1017.78 1017.50 1017.06 1016.70 1016.38 1016.10 1015.78 1015.46 1015.10 1014.78 1014.46 1014.10 1013.78 1013.42 1013.10 1012.78 1012.46 1012.18 1011.94 1011.66 1011.38 1011.18 1010.94 1010.74 1010.42 1010.10
1032.10 1031.90 1031.66 1031.42 1031.18 1030.90 1030.66 1030.34 1030.02 1029.70 1029.38 1029.06 1028.78 1028.46 1028.22 1027.94 1027.66 1027.30 1026.98 1026.66 1026.30 1025.94 1025.50 1025.06 1024.66 1024.22 1023.74 1023.26 1022.78 1022.30 1021.94 1021.66 1021.42 1021.14 1020.82 1020.54 1020.22 1019.90 1019.50 1019.10 1018.74 1018.38 1018.10 1017.78 1017.42 1017.02 1016.66 1016.38 1016.10 1015.78 1015.50 1015.14 1014.82 1014.50 1014.18 1013.86 1013.54 1013.22 1012.90 1012.58 1012.30 1012.06 1011.78 1011.50 1011.30 1011.06 1010.90 1010.62 1010.34
1032.18 1031.94 1031.70 1031.46 1031.18 1030.90 1030.58 1030.30 1029.98 1029.66 1029.34 1029.02 1028.70 1028.42 1028.18 1027.94 1027.66 1027.30 1026.94 1026.62 1026.22 1025.90 1025.50 1025.10 1024.66 1024.22 1023.78 1023.30 1022.82 1022.42 1022.10 1021.78 1021.50 1021.22 1020.90 1020.58 1020.26 1019.94 1019.54 1019.18 1018.74 1018.38 1018.06 1017.78 1017.38 1016.94 1016.58 1016.26 1016.06 1015.78 1015.54 1015.22 1014.94 1014.62 1014.26 1013.94 1013.66 1013.38 1013.06 1012.74 1012.46 1012.18 1011.94 1011.66 1011.42 1011.22 1010.98 1010.74 1010.50
1032.22 1032.02 1031.78 1031.46 1031.18 1030.90 1030.54 1030.22 1029.94 1029.62 1029.26 1028.94 1028.66 1028.42 1028.14 1027.90 1027.62 1027.34 1026.98 1026.66 1026.26 1025.94 1025.54 1025.14 1024.74 1024.26 1023.78 1023.34 1022.90 1022.50 1022.22 1021.90 1021.62 1021.34 1021.02 1020.66 1020.34 1019.98 1019.66 1019.26 1018.82 1018.38 1018.02 1017.70 1017.34 1016.90 1016.50 1016.22 1016.02 1015.82 1015.58 1015.34 1015.06 1014.74 1014.38 1014.10 1013.78 1013.46 1013.18 1012.90 1012.62 1012.38 1012.10 1011.82 1011.54 1011.34 1011.06 1010.86 1010.66
1032.30 1032.06 1031.78 1031.46 1031.18 1030.86 1030.50 1030.22 1029.86 1029.50 1029.22 1028.94 1028.66 1028.42 1028.14 1027.90 1027.62 1027.34 1027.02 1026.66 1026.30 1025.94 1025.54 1025.14 1024.74 1024.34 1023.90 1023.42 1023.02 1022.66 1022.30 1021.98 1021.70 1021.42 1021.10 1020.78 1020.42 1020.06 1019.66 1019.34 1018.94 1018.50 1018.10 1017.74 1017.34 1016.82 1016.38 1016.10 1015.94 1015.78 1015.62 1015.42 1015.14 1014.86 1014.58 1014.26 1013.94 1013.66 1013.34 1013.06 1012.78 1012.50 1012.22 1011.98 1011.70 1011.46 1011.22 1011.06 1010.82
1032.30 1032.06 1031.78 1031.46 1031.14 1030.78 1030.46 1030.10 1029.78 1029.46 1029.18 1028.86 1028.58 1028.38 1028.14 1027.94 1027.66 1027.34 1026.98 1026.66 1026.30 1025.94 1025.54 1025.22 1024.78 1024.38 1023.94 1023.54 1023.14 1022.78 1022.42 1022.10 1021.74 1021.42 1021.14 1020.82 1020.50 1020.10 1019.70 1019.38 1018.98 1018.62 1018.22 1017.82 1017.42 1016.82 1016.22 1015.90 1015.78 1015.70 1015.62 1015.50 1015.26 1014.98 1014.66 1014.42 1014.14 1013.82 1013.50 1013.22 1012.94 1012.66 1012.38 1012.14 1011.90 1011.66 1011.42 1011.22 1011.02
1032.30 1032.02 1031.70 1031.38 1031.06 1030.70 1030.38 1030.06 1029.70 1029.38 1029.06 1028.78 1028.54 1028.38 1028.18 1027.94 1027.66 1027.30 1026.94 1026.62 1026.26 1025.94 1025.58 1025.22 1024.78 1024.42 1023.98 1023.58 1023.22 1022.82 1022.50 1022.18 1021.78 1021.46 1021.14 1020.82 1020.50 1020.18 1019.78 1019.42 1019.10 1018.78 1018.38 1017.94 1017.46 1016.78 1016.18 1015.78 1015.70 1015.66 1015.66 1015.54 1015.38 1015.10 1014.86 1014.66 1014.38 1014.10 1013.78 1013.46 1013.14 1012.82 1012.58 1012.38 1012.10 1011.86 1011.66 1011.46 1011.26
1032.26 1031.94 1031.66 1031.34 1030.94 1030.66 1030.30 1029.98 1029.66 1029.38 1029.06 1028.78 1028.58 1028.42 1028.22 1027.98 1027.66 1027.34 1026.94 1026.58 1026.26 1025.94 1025.54 1025.14 1024.78 1024.42 1024.02 1023.62 1023.26 1022.94 1022.58 1022.22 1021.90 1021.58 1021.22 1020.90 1020.58 1020.26 1019.94 1019.54 1019.22 1018.86 1018.50 1018.02 1017.38 1016.78 1016.22 1015.78 1015.66 1015.70 1015.74 1015.66 1015.50 1015.26 1015.06 1014.82 1014.62 1014.34 1014.02 1013.70 1013.38 1013.10 1012.82 1012.54 1012.30 1012.10 1011.94 1011.74 1011.54
1032.22 1031.90 1031.54 1031.22 1030.90 1030.54 1030.22 1029.94 1029.66 1029.38 1029.06 1028.78 1028.62 1028.46 1028.26 1027.98 1027.66 1027.34 1026.98 1026.66 1026.30 1025.94 1025.54 1025.14 1024.78 1024.42 1024.06 1023.66 1023.34 1022.94 1022.66 1022.34 1021.98 1021.66 1021.38 1021.02 1020.66 1020.38 1020.02 1019.70 1019.38 1019.06 1018.66 1018.10 1017.38 1016.82 1016.34 1015.90 1015.74 1015.70 1015.78 1015.78 1015.62 1015.38 1015.22 1015.02 1014.78 1014.54 1014.22 1013.94 1013.66 1013.38 1013.10 1012.82 1012.58 1012.34 1012.14 1011.94 1011.78
1032.14 1031.82 1031.50 1031.22 1030.86 1030.54 1030.26 1030.02 1029.70 1029.38 1029.02 1028.78 1028.66 1028.50 1028.30 1028.02 1027.70 1027.38 1026.98 1026.66 1026.34 1025.94 1025.54 1025.14 1024.78 1024.50 1024.10 1023.78 1023.38 1023.06 1022.74 1022.42 1022.10 1021.78 1021.50 1021.22 1020.86 1020.50 1020.14 1019.78 1019.50 1019.22 1018.74 1018.10 1017.38 1016.82 1016.38 1016.02 1015.78 1015.70 1015.78 1015.82 1015.74 1015.54 1015.38 1015.22 1015.02 1014.78 1014.46 1014.18 1013.94 1013.66 1013.42 1013.14 1012.90 1012.66 1012.42 1012.22 1012.02
1032.14 1031.78 1031.50 1031.18 1030.86 1030.54 1030.30 1030.02 1029.70 1029.34 1029.02 1028.82 1028.74 1028.62 1028.38 1028.06 1027.74 1027.38 1027.06 1026.70 1026.34 1025.94 1025.50 1025.18 1024.86 1024.54 1024.22 1023.86 1023.50 1023.18 1022.82 1022.50 1022.14 1021.82 1021.54 1021.26 1020.94 1020.66 1020.30 1019.94 1019.66 1019.26 1018.78 1018.10 1017.46 1016.86 1016.42 1016.06 1015.78 1015.70 1015.78 1015.86 1015.86 1015.78 1015.62 1015.46 1015.22 1014.94 1014.70 1014.46 1014.18 1013.94 1013.70 1013.46 1013.22 1012.94 1012.70 1012.50 1012.34
1032.10 1031.78 1031.50 1031.18 1030.86 1030.58 1030.34 1030.06 1029.74 1029.38 1029.14 1028.94 1028.82 1028.62 1028.34 1028.06 1027.78 1027.42 1027.06 1026.70 1026.34 1025.94 1025.58 1025.26 1024.94 1024.66 1024.34 1023.98 1023.66 1023.26 1022.90 1022.54 1022.22 1021.94 1021.62 1021.38 1021.06 1020.74 1020.38 1020.06 1019.78 1019.38 1018.82 1018.22 1017.50 1016.90 1016.38 1015.94 1015.78 1015.78 1015.82 1015.94 1015.98 1015.94 1015.78 1015.62 1015.42 1015.18 1014.94 1014.66 1014.46 1014.22 1013.98 1013.74 1013.50 1013.26 1013.06 1012.78 1012.58
1032.18 1031.82 1031.50 1031.22 1030.90 1030.66 1030.38 1030.10 1029.78 1029.50 1029.22 1029.06 1028.86 1028.66 1028.38 1028.06 1027.74 1027.38 1027.06 1026.78 1026.38 1026.06 1025.70 1025.42 1025.10 1024.78 1024.42 1024.06 1023.74 1023.38 1022.98 1022.62 1022.30 1021.98 1021.70 1021.42 1021.14 1020.82 1020.50 1020.18 1019.90 1019.50 1018.94 1018.30 1017.62 1016.98 1016.42 1015.94 1015.82 1015.82 1015.94 1015.98 1016.06 1016.02 1015.90 1015.78 1015.62 1015.38 1015.18 1014.90 1014.70 1014.50 1014.26 1013.98 1013.78 1013.54 1013.30 1013.06 1012.86
1032.18 1031.86 1031.54 1031.22 1030.94 1030.70 1030.42 1030.14 1029.86 1029.58 1029.34 1029.10 1028.90 1028.66 1028.38 1028.06 1027.78 1027.46 1027.14 1026.82 1026.50 1026.14 1025.82 1025.50 1025.18 1024.82 1024.50 1024.10 1023.78 1023.46 1023.06 1022.70 1022.38 1022.10 1021.78 1021.50 1021.22 1020.94 1020.62 1020.26 1019.98 1019.58 1019.06 1018.42 1017.78 1017.18 1016.62 1016.18 1016.02 1016.02 1016.06 1016.10 1016.18 1016.18 1016.06 1015.94 1015.78 1015.58 1015.38 1015.18 1014.94 1014.70 1014.50 1014.30 1014.06 1013.82 1013.62 1013.34 1013.06
1032.18 1031.86 1031.58 1031.22 1030.94 1030.70 1030.46 1030.18 1029.94 1029.62 1029.38 1029.14 1028.94 1028.66 1028.38 1028.10 1027.86 1027.58 1027.26 1026.94 1026.58 1026.22 1025.90 1025.58 1025.22 1024.86 1024.50 1024.22 1023.90 1023.54 1023.18 1022.78 1022.50 1022.18 1021.94 1021.66 1021.38 1021.06 1020.74 1020.38 1020.10 1019.74 1019.22 1018.58 1017.94 1017.38 1016.86 1016.46 1016.30 1016.26 1016.30 1016.30 1016.34 1016.30 1016.18 1016.06 1015.86 1015.70 1015.54 1015.38 1015.10 1014.90 1014.70 1014.50 1014.30 1014.10 1013.86 1013.58 1013.38
1032.18 1031.86 1031.58 1031.30 1031.02 1030.74 1030.50 1030.22 1029.94 1029.66 1029.38 1029.18 1028.94 1028.66 1028.38 1028.10 1027.86 1027.58 1027.30 1026.94 1026.66 1026.34 1026.06 1025.74 1025.38 1025.02 1024.66 1024.34 1024.02 1023.66 1023.30 1022.94 1022.58 1022.30 1022.02 1021.78 1021.50 1021.18 1020.82 1020.54 1020.30 1019.86 1019.34 1018.74 1018.22 1017.66 1017.10 1016.78 1016.62 1016.58 1016.54 1016.50 1016.50 1016.38 1016.26 1016.14 1015.98 1015.82 1015.66 1015.50 1015.26 1015.06 1014.90 1014.70 1014.50 1014.34 1014.10 1013.86 1013.62
1032.14 1031.82 1031.58 1031.34 1031.06 1030.78 1030.50 1030.22 1029.94 1029.66 1029.38 1029.14 1028.94 1028.66 1028.42 1028.18 1027.90 1027.62 1027.34 1027.02 1026.70 1026.42 1026.14 1025.86 1025.54 1025.22 1024.86 1024.50 1024.22 1023.86 1023.46 1023.06 1022.78 1022.46 1022.18 1021.90 1021.62 1021.26 1020.94 1020.70 1020.50 1020.06 1019.50 1018.94 1018.42 1017.90 1017.46 1017.10 1016.94 1016.86 1016.78 1016.74 1016.66 1016.54 1016.38 1016.26 1016.10 1015.94 1015.78 1015.62 1015.38 1015.22 1015.06 1014.90 1014.74 1014.58 1014.38 1014.10 1013.86
1032.14 1031.82 1031.58 1031.34 1031.06 1030.78 1030.50 1030.22 1029.94 1029.66 1029.38 1029.14 1028.94 1028.66 1028.46 1028.22 1027.94 1027.66 1027.42 1027.10 1026.78 1026.50 1026.22 1025.94 1025.66 1025.30 1024.94 1024.66 1024.34 1023.98 1023.62 1023.30 1022.94 1022.66 1022.34 1022.06 1021.78 1021.42 1021.06 1020.82 1020.58 1020.18 1019.66 1019.10 1018.62 1018.14 1017.70 1017.38 1017.18 1017.06 1017.02 1016.94 1016.86 1016.70 1016.54 1016.38 1016.22 1016.10 1015.90 1015.70 1015.50 1015.38 1015.22 1015.10 1014.94 1014.78 1014.58 1014.34 1014.10
1032.18 1031.90 1031.66 1031.34 1031.06 1030.82 1030.54 1030.22 1029.94 1029.66 1029.38 1029.14 1028.94 1028.66 1028.46 1028.22 1027.98 1027.74 1027.46 1027.18 1026.90 1026.58 1026.30 1025.98 1025.66 1025.34 1025.06 1024.70 1024.38 1024.10 1023.74 1023.42 1023.14 1022.82 1022.54 1022.22 1021.90 1021.54 1021.22 1020.94 1020.70 1020.30 1019.78 1019.30 1018.82 1018.38 1017.94 1017.62 1017.38 1017.22 1017.18 1017.06 1017.02 1016.86 1016.70 1016.58 1016.38 1016.22 1016.06 1015.86 1015.66 1015.50 1015.42 1015.30 1015.10 1014.98 1014.78 1014.50 1014.30
1032.22 1031.94 1031.66 1031.38 1031.10 1030.86 1030.58 1030.30 1029.98 1029.66 1029.38 1029.14 1028.94 1028.70 1028.50 1028.26 1027.98 1027.78 1027.50 1027.22 1026.94 1026.66 1026.38 1026.06 1025.74 1025.46 1025.14 1024.82 1024.50 1024.18 1023.86 1023.54 1023.30 1023.02 1022.74 1022.38 1022.10 1021.70 1021.38 1021.06 1020.82 1020.50 1020.02 1019.50 1019.06 1018.66 1018.22 1017.78 1017.50 1017.34 1017.30 1017.22 1017.14 1017.02 1016.90 1016.74 1016.58 1016.42 1016.22 1016.02 1015.82 1015.70 1015.62 1015.46 1015.30 1015.14 1014.94 1014.74 1014.50
1032.18 1031.94 1031.70 1031.42 1031.14 1030.86 1030.58 1030.30 1030.02 1029.70 1029.42 1029.14 1028.94 1028.74 1028.54 1028.30 1028.06 1027.78 1027.54 1027.30 1027.06 1026.78 1026.46 1026.10 1025.82 1025.54 1025.30 1024.98 1024.66 1024.30 1023.98 1023.66 1023.42 1023.22 1022.94 1022.58 1022.26 1021.94 1021.58 1021.26 1020.98 1020.66 1020.22 1019.74 1019.30 1018.90 1018.46 1017.98 1017.62 1017.46 1017.38 1017.38 1017.26 1017.14 1017.06 1016.94 1016.78 1016.66 1016.46 1016.26 1016.10 1015.94 1015.82 1015.70 1015.50 1015.34 1015.14 1014.94 1014.66
1032.10 1031.94 1031.66 1031.42 1031.14 1030.86 1030.58 1030.30 1029.98 1029.70 1029.42 1029.14 1028.94 1028.66 1028.50 1028.30 1028.10 1027.86 1027.66 1027.42 1027.18 1026.94 1026.58 1026.22 1025.94 1025.66 1025.38 1025.06 1024.74 1024.38 1024.10 1023.78 1023.54 1023.34 1023.06 1022.78 1022.46 1022.10 1021.78 1021.50 1021.18 1020.82 1020.38 1019.90 1019.46 1019.06 1018.62 1018.14 1017.78 1017.66 1017.58 1017.50 1017.38 1017.30 1017.22 1017.10 1016.98 1016.82 1016.66 1016.50 1016.34 1016.18 1016.06 1015.94 1015.74 1015.58 1015.38 1015.14 1014.86
1032.02 1031.78 1031.62 1031.38 1031.10 1030.86 1030.58 1030.26 1029.98 1029.70 1029.42 1029.14 1028.94 1028.66 1028.46 1028.26 1028.10 1027.94 1027.70 1027.50 1027.22 1026.98 1026.66 1026.30 1025.98 1025.74 1025.50 1025.18 1024.78 1024.50 1024.14 1023.82 1023.66 1023.46 1023.22 1022.94 1022.66 1022.26 1021.94 1021.66 1021.34 1020.94 1020.50 1020.10 1019.66 1019.22 1018.78 1018.30 1018.06 1017.90 1017.82 1017.74 1017.58 1017.46 1017.34 1017.22 1017.10 1016.98 1016.86 1016.74 1016.58 1016.42 1016.26 1016.10 1015.98 1015.82 1015.66 1015.42 1015.22
1031.94 1031.74 1031.50 1031.22 1031.02 1030.78 1030.50 1030.22 1029.90 1029.62 1029.38 1029.10 1028.90 1028.66 1028.46 1028.26 1028.10 1027.90 1027.70 1027.50 1027.22 1026.94 1026.66 1026.34 1026.06 1025.78 1025.54 1025.22 1024.94 1024.58 1024.26 1023.94 1023.70 1023.50 1023.34 1023.06 1022.78 1022.42 1022.10 1021.82 1021.50 1021.06 1020.66 1020.30 1019.86 1019.42 1018.94 1018.50 1018.22 1018.10 1018.06 1017.98 1017.82 1017.66 1017.50 1017.42 1017.30 1017.18 1017.06 1016.94 1016.86 1016.70 1016.54 1016.38 1016.22 1016.10 1015.94 1015.74 1015.58
Wind_Speed
12 12 11 11 11 10 10 10 10 10 10 11 11 11 11 11 11 10 10 11 11 11 11 11 11 12 14 18 19 19 19 18 19 19 20 20 19 19 19 19 18 18 18 18 18 17 15 15 14 12 11 11 12 12 12 12 13 13 13 13 11 12 13 15 15 15 16 17 13
14 13 13 13 12 11 10 10 10 11 11 11 10 11 11 10 10 10 11 12 11 11 12 11 12 14 16 19 18 18 18 18 19 19 19 19 19 19 19 18 18 18 19 19 18 16 14 15 14 12 11 11 11 12 12 12 13 13 14 15 12 11 11 12 14 15 16 16 14
14 14 13 13 13 12 11 10 11 12 13 12 11 11 10 10 10 10 11 12 13 13 12 11 13 15 17 18 17 17 18 18 19 19 18 18 19 19 19 18 19 19 19 18 18 16 15 16 14 12 11 10 11 12 12 13 13 13 14 14 12 10 9 10 11 12 12 11 12
14 14 14 14 16 15 14 11 13 14 14 12 12 11 11 10 10 10 11 13 14 13 13 13 13 14 15 16 18 19 19 20 20 19 18 18 18 19 19 19 19 19 19 19 19 18 18 18 14 11 11 12 13 13 12 11 12 12 11 11 10 9 9 9 10 10 10 10 11
15 14 14 14 16 16 15 13 15 15 14 12 11 11 10 10 10 11 12 13 13 13 14 16 15 14 15 17 19 20 21 20 20 18 17 18 18 19 19 20 19 19 19 19 19 20 19 19 13 11 11 12 11 11 12 13 13 12 11 9 9 9 9 9 10 10 9 9 9
15 15 15 15 16 16 15 14 16 15 14 12 13 13 12 11 12 13 14 14 14 15 17 17 16 16 16 18 19 20 20 19 18 17 18 18 18 19 19 20 20 19 19 19 20 20 19 17 13 11 10 11 11 12 13 14 13 12 11 9 9 9 9 10 10 9 9 10 10
16 16 16 16 17 16 15 16 15 15 14 13 14 15 16 15 16 17 17 16 15 15 15 14 15 16 17 18 18 19 18 17 17 18 18 18 18 19 19 20 20 20 20 20 20 19 18 16 12 11 11 11 10 12 14 14 12 11 10 10 9 8 9 11 10 9 10 11 11
15 16 16 16 17 17 17 18 16 15 14 12 14 16 18 19 19 19 18 17 15 14 14 13 16 18 18 18 18 18 18 18 18 18 17 17 18 19 19 19 20 20 20 20 19 19 18 15 12 11 11 11 10 12 14 17 15 13 12 12 10 9 9 9 10 10 11 12 11
15 15 16 16 16 17 18 18 17 16 15 14 16 17 19 19 20 19 18 16 15 15 15 15 17 19 20 19 19 18 17 17 17 17 17 17 18 19 19 18 19 19 19 19 19 19 18 14 12 11 11 11 11 13 15 18 18 16 13 11 10 10 10 11 12 12 12 12 10
16 16 16 16 17 18 18 18 17 16 16 15 17 18 19 19 19 18 17 15 16 17 17 16 18 19 19 19 18 17 16 16 16 16 17 17 18 18 18 17 18 19 18 18 17 17 16 13 12 13 13 12 14 15 16 18 18 18 15 10 10 12 14 14 14 14 13 11 9
17 17 16 16 17 18 18 18 16 15 15 15 17 17 18 18 18 17 17 16 17 18 19 18 18 18 18 17 17 16 16 15 15 16 17 17 17 17 18 18 18 19 18 18 17 15 13 12 14 15 16 15 15 15 16 17 17 17 16 14 12 12 13 13 12 11 9 8 8
17 17 17 17 18 18 18 17 15 14 14 15 16 17 17 17 18 18 18 19 19 19 19 19 19 18 17 15 15 15 15 15 16 16 16 17 17 17 17 18 18 18 18 18 16 14 13 13 15 17 18 17 14 13 15 17 16 16 16 16 16 15 14 13 12 10 7 7 8
17 17 17 17 18 18 17 16 14 14 14 15 16 16 16 16 18 18 19 19 19 18 17 18 18 17 16 16 16 15 15 15 16 16 16 16 16 16 17 17 17 17 17 17 15 14 14 14 16 17 18 17 14 14 15 16 16 15 15 16 16 16 16 16 15 13 11 10 9
17 17 17 17 18 17 16 16 14 13 14 15 16 16 16 16 17 18 18 18 19 18 17 17 16 16 16 17 17 16 15 15 16 17 17 17 17 17 17 17 17 17 16 15 15 15 15 15 16 16 17 16 15 15 15 15 15 15 15 15 15 15 15 15 15 15 14 13 11
17 17 17 17 17 16 15 15 13 13 14 15 16 16 16 15 16 17 17 18 19 18 17 16 16 16 17 19 18 17 16 16 16 17 17 17 17 18 18 18 17 17 16 15 15 15 15 15 15 15 15 15 15 15 15 15 15 14 14 14 15 15 15 15 15 15 15 14 12
17 17 17 17 17 16 15 15 12 12 13 14 16 16 16 15 15 16 18 19 17 17 16 17 17 17 17 19 18 17 16 16 16 17 17 17 17 18 18 19 18 17 16 16 15 14 14 14 14 14 14 14 14 14 14 14 14 14 14 14 14 14 14 15 15 15 15 15 14
17 17 17 17 17 17 16 15 13 13 14 15 16 16 16 15 15 16 17 18 17 17 18 19 18 17 17 18 17 16 15 15 16 16 16 16 17 18 18 19 18 17 17 16 16 15 13 13 13 13 13 14 13 13 14 14 14 14 14 14 14 14 14 14 14 14 14 15 14
17 17 17 17 17 17 17 17 16 15 16 16 16 16 16 16 16 16 17 18 18 19 19 20 18 17 17 18 17 15 14 15 15 16 16 16 17 17 18 19 18 18 17 16 16 14 13 12 12 12 13 13 13 13 13 13 13 13 14 14 14 14 14 14 14 13 13 14 14
17 17 17 17 17 17 17 17 17 16 16 16 16 16 16 17 17 17 17 18 19 20 20 20 19 18 18 18 17 16 15 14 16 17 17 17 17 17 18 19 19 18 17 17 16 14 12 10 11 12 12 12 13 13 13 13 13 13 14 14 14 14 14 14 14 13 13 14 14
17 17 17 17 17 17 17 17 16 16 16 15 16 16 17 18 18 18 18 19 19 20 20 20 19 19 18 18 18 17 16 14 16 17 18 17 17 17 18 19 19 18 18 18 17 14 11 8 10 11 12 13 13 13 14 13 13 13 13 13 13 14 14 14 14 14 14 14 14
17 17 17 17 17 17 16 16 16 16 16 16 16 17 17 18 18 19 19 19 19 19 19 19 19 19 19 18 18 18 16 14 15 16 17 17 17 17 17 18 18 18 18 18 18 15 11 7 8 10 11 12 13 13 13 13 13 14 13 13 13 13 14 14 14 14 14 14 14
17 17 16 16 16 17 17 16 16 16 16 16 16 16 17 18 18 19 19 19 19 19 19 19 19 19 19 18 18 17 17 15 16 16 16 16 16 16 17 16 17 18 18 18 18 15 11 6 8 10 11 11 12 13 13 13 13 14 14 14 14 14 14 14 14 14 14 14 14
16 16 16 15 16 17 17 16 16 16 16 16 16 16 17 18 19 19 19 19 18 18 18 17 17 18 18 18 18 17 17 17 17 17 17 16 16 16 17 16 16 17 17 17 17 16 12 7 8 9 10 10 11 12 13 13 13 13 13 14 14 14 14 14 14 14 14 14 14
16 16 15 14 16 17 17 16 16 17 17 16 16 16 18 19 19 19 19 18 18 18 18 16 16 17 18 17 17 17 17 17 18 18 18 18 17 17 17 15 15 15 15 15 18 19 16 10 8 9 9 10 11 11 12 13 13 13 13 13 14 14 14 14 14 14 14 14 13
17 17 16 15 16 16 16 16 17 17 17 16 16 16 18 19 19 18 18 18 18 18 18 17 17 16 16 16 17 17 17 17 17 17 18 18 18 17 16 14 14 13 14 15 23 27 24 15 11 9 8 8 9 10 10 12 12 13 13 13 13 13 13 14 14 14 14 14 13
17 17 17 17 17 17 17 17 17 17 17 16 16 17 18 18 18 18 18 18 18 18 17 17 16 16 16 15 16 17 17 16 16 16 17 17 18 18 16 14 13 12 13 18 27 30 28 20 15 12 9 7 8 9 9 10 12 12 13 13 13 13 13 13 14 14 14 13 13
17 17 17 17 17 17 17 17 17 17 16 16 16 17 18 18 17 17 18 18 18 17 16 15 15 15 15 14 16 17 17 16 15 16 16 16 17 17 16 14 13 12 15 23 29 31 29 21 16 13 11 8 8 8 9 9 10 11 12 12 12 12 13 13 13 13 13 13 13
17 17 18 18 18 18 17 17 17 17 17 16 16 17 18 18 18 18 18 18 17 16 15 14 14 13 12 12 15 17 17 17 16 15 15 15 17 17 16 15 14 15 19 27 31 33 31 21 14 13 12 9 7 7 8 8 9 9 10 10 11 12 12 12 12 12 12 12 12
18 18 18 18 18 18 18 18 18 18 17 16 16 17 17 18 18 18 18 18 18 16 14 13 12 12 12 13 15 16 16 16 15 14 14 15 17 17 17 16 16 18 23 30 32 34 31 19 13 12 12 11 7 6 6 7 7 8 8 8 10 11 11 11 11 11 11 11 11
17 18 18 18 18 18 18 18 18 17 17 15 16 17 17 17 18 18 18 18 18 16 15 14 14 14 15 16 15 15 15 15 14 14 15 16 17 18 18 18 17 18 22 29 33 34 31 17 12 12 12 12 8 6 6 6 7 7 8 8 9 11 11 11 12 12 11 10 11
17 17 17 17 17 17 17 17 17 17 17 15 16 17 17 17 18 18 18 18 17 16 16 17 17 18 18 17 16 16 16 16 15 15 16 17 18 18 18 18 18 19 23 29 33 34 29 16 13 13 13 12 9 7 6 7 7 7 7 8 10 11 11 11 11 12 12 11 11
16 17 17 17 17 17 17 17 17 17 17 16 16 17 17 18 18 17 17 17 17 17 17 18 18 19 18 18 17 17 17 17 17 17 17 17 18 18 18 18 18 19 23 30 33 32 27 17 15 15 14 13 10 8 7 7 7 7 8 9 10 11 11 10 10 12 12 11 11
16 16 17 17 17 17 17 17 17 17 17 16 17 17 17 17 17 17 17 16 16 16 17 17 18 18 18 18 17 17 17 17 17 18 18 18 18 18 18 17 15 18 24 30 33 31 26 18 16 15 15 14 10 8 8 8 7 7 8 9 10 11 11 12 11 12 12 11 10
15 16 17 17 17 17 17 17 17 17 17 17 17 17 17 17 17 17 16 16 15 15 16 16 16 16 16 17 17 17 17 16 17 18 19 19 19 19 18 16 13 18 26 31 32 30 26 19 16 15 15 13 9 8 8 8 7 8 8 9 10 11 11 12 12 12 12 10 9
16 16 17 17 17 17 17 17 17 17 17 17 17 17 17 17 16 16 16 16 16 16 15 15 15 16 16 16 16 16 17 17 17 18 19 19 19 19 18 17 16 21 27 31 32 30 27 20 16 14 13 11 8 7 8 8 8 9 9 10 10 11 12 12 11 11 11 10 8
16 16 17 17 17 17 17 17 17 17 17 17 17 17 17 16 16 15 15 16 16 16 16 16 16 16 16 17 16 16 16 17 18 18 18 19 19 19 19 18 19 22 27 30 31 31 27 21 15 13 12 9 7 6 7 7 7 8 10 10 11 11 12 12 11 11 11 9 8
15 16 16 16 16 16 17 16 17 17 17 17 16 16 16 16 15 15 15 15 15 15 16 16 16 16 16 17 16 16 16 17 17 18 18 19 19 19 19 19 19 21 24 28 30 30 27 22 14 12 10 7 6 6 6 6 7 8 9 10 10 11 11 10 10 11 11 10 8
15 15 15 16 16 16 16 16 16 16 16 16 16 15 15 15 14 14 14 14 14 15 15 15 16 16 16 17 16 16 16 17 17 18 18 18 18 18 19 19 19 20 22 26 29 29 27 24 14 11 10 7 6 6 6 6 6 7 8 8 9 10 10 9 9 10 11 12 12
15 15 15 15 16 16 16 16 16 16 15 16 15 15 15 14 13 13 14 14 13 14 14 14 15 16 16 17 15 15 16 17 17 17 17 17 18 19 19 19 18 19 21 25 28 29 27 24 14 11 10 7 6 5 5 5 6 7 7 7 8 9 9 9 9 9 10 13 16
15 15 15 15 15 15 16 16 15 14 14 14 14 14 14 14 13 13 13 13 13 13 13 13 15 16 16 16 15 15 15 17 17 17 17 17 17 19 20 18 18 19 21 24 27 29 28 24 15 11 9 6 5 4 4 5 6 7 7 7 7 8 8 9 8 9 10 12 14
14 14 15 15 15 15 16 16 15 14 13 13 13 13 13 13 13 13 13 12 13 13 12 12 14 15 16 15 13 14 15 16 17 17 17 17 16 17 18 17 18 19 20 23 26 29 28 25 18 14 10 6 5 4 4 4 5 6 7 7 7 7 7 8 8 9 9 11 11
Wind_Direction
339 341 342 340 339 337 335 332 332 332 332 330 326 323 321 319 321 324 327 328 325 322 319 315 314 313 314 314 314 313 313 314 315 315 315 316 316 317 317 316 316 316 315 314 312 310 307 305 303 300 295 292 288 283 279 275 273 271 270 268 268 268 269 270 270 270 270 269 268
339 341 342 341 339 337 334 332 332 332 331 328 324 322 321 321 324 326 327 327 324 320 316 312 312 312 312 312 313 313 314 313 314 314 315 316 316 317 317 316 316 316 316 315 313 311 309 307 305 301 296 292 288 285 281 277 274 272 271 269 268 268 268 269 268 268 267 266 264
339 341 342 341 340 338 335 333 332 331 330 326 323 322 322 323 325 326 326 324 321 318 315 312 312 312 312 312 313 314 314 313 313 314 315 316 317 317 317 316 316 317 316 316 315 313 311 311 306 302 296 292 289 286 283 279 275 272 270 269 268 267 267 266 266 265 263 261 261
340 341 341 340 339 338 336 333 332 331 329 326 324 323 323 325 326 326 324 322 319 317 315 313 312 312 313 314 314 314 313 312 312 314 315 316 316 317 317 317 317 317 318 317 316 315 314 314 309 303 297 292 288 285 282 279 276 272 270 268 268 268 268 268 267 265 263 261 262
340 341 341 339 339 337 335 333 332 330 328 325 324 325 327 328 328 326 324 322 320 317 315 314 313 314 315 315 315 314 312 312 313 315 317 317 317 317 318 318 319 320 320 319 318 317 317 317 312 306 300 294 290 285 282 280 277 273 270 268 267 267 266 265 263 261 261 263 265
338 339 339 339 338 337 334 333 331 329 327 325 326 328 330 331 330 328 326 322 318 317 316 315 315 316 316 316 315 313 312 312 314 316 318 318 318 318 319 320 321 322 322 321 319 319 319 319 315 311 305 299 293 289 286 283 277 273 269 267 266 264 263 261 261 262 263 266 270
336 337 338 338 337 335 334 332 330 328 327 325 328 330 332 332 330 328 325 322 319 319 319 319 319 318 317 316 314 313 312 312 314 317 318 319 319 320 321 322 323 324 323 322 321 321 321 321 318 315 312 308 303 299 297 294 284 275 269 267 266 265 264 264 266 267 267 267 270
334 336 337 337 336 334 333 332 330 329 328 327 330 332 332 331 330 328 326 323 322 321 321 319 319 317 316 315 314 313 312 312 315 318 319 319 320 321 322 324 324 324 323 323 322 322 323 323 321 318 316 316 313 312 312 312 302 290 276 268 266 265 265 265 266 266 265 265 267
334 336 336 335 335 334 333 332 330 329 328 328 331 332 332 332 331 330 327 325 323 322 321 319 318 317 316 315 314 313 312 313 316 318 319 320 321 323 324 325 324 324 323 323 322 322 323 324 322 320 320 320 320 321 323 325 321 311 295 274 265 261 262 264 264 263 261 259 261
334 335 335 335 335 334 333 331 330 328 328 329 332 333 333 332 332 331 329 326 324 323 322 320 319 318 317 316 314 313 313 314 317 318 319 320 322 323 325 324 324 323 323 323 322 322 323 323 323 324 324 323 324 326 329 333 333 329 321 299 276 265 262 263 263 262 260 256 258
334 335 336 335 335 334 332 331 329 329 330 331 333 333 333 333 333 331 329 327 325 323 322 321 320 319 317 316 314 313 313 316 318 319 319 320 322 323 324 323 322 322 323 324 323 323 324 325 325 326 328 329 330 332 335 338 340 339 337 330 315 296 282 275 276 274 269 265 265
335 335 335 335 334 333 332 331 329 329 330 332 333 334 334 334 333 332 330 329 326 324 322 322 321 319 317 315 313 313 314 317 319 320 320 321 322 323 323 322 321 322 323 324 324 324 325 326 326 328 330 332 334 337 339 342 344 345 345 345 342 338 334 330 326 319 307 293 284
335 335 335 335 334 333 332 331 329 329 330 333 334 334 334 334 334 333 332 330 328 325 323 322 320 319 317 315 313 313 315 320 322 322 322 322 323 324 323 321 321 322 323 324 324 324 325 326 327 328 330 334 336 339 342 344 346 348 349 349 350 351 350 348 344 337 326 312 298
336 336 335 335 334 334 332 331 329 329 330 332 334 334 334 334 335 335 333 331 328 326 324 322 320 319 318 316 312 313 317 322 324 324 324 324 325 325 324 322 322 323 323 323 322 322 323 326 327 328 330 332 336 340 343 346 348 350 351 351 352 352 350 347 344 339 332 324 312
336 336 336 335 335 334 332 331 329 329 330 332 333 334 334 335 335 335 333 331 329 326 324 323 321 319 318 316 313 315 319 326 327 326 326 325 326 326 325 324 324 324 324 323 321 321 322 326 328 329 330 332 336 340 344 347 348 350 351 352 353 353 352 350 347 343 338 333 327
337 336 336 336 335 334 333 331 329 329 330 330 331 332 333 334 334 334 333 332 329 327 325 324 322 320 319 317 315 317 323 329 329 328 328 327 327 327 326 325 325 325 325 324 322 320 322 327 330 331 331 333 337 341 344 347 348 350 351 352 353 354 353 352 350 347 343 338 335
337 337 336 336 335 334 333 331 329 328 328 328 328 330 331 332 332 332 332 331 329 327 326 324 323 321 320 319 319 322 327 332 331 330 329 328 327 327 326 326 325 325 326 325 322 320 320 327 331 333 334 335 339 342 345 347 348 349 350 351 352 353 353 354 352 350 346 342 339
337 337 336 335 335 333 331 330 328 327 326 325 325 326 328 329 329 330 330 330 329 328 326 325 323 322 321 321 323 326 331 334 332 330 329 328 328 327 327 326 326 326 327 327 323 319 318 325 332 335 337 338 341 344 346 347 348 349 350 351 352 353 353 354 354 352 349 347 343
337 336 336 335 333 331 329 328 326 325 324 323 322 323 325 327 328 329 329 329 329 329 328 326 325 323 323 323 326 329 333 334 333 331 330 329 329 329 329 328 327 328 329 329 324 318 315 324 335 339 340 340 343 346 348 349 349 350 351 351 353 353 354 354 354 353 352 350 346
336 336 335 333 331 329 327 325 324 323 322 320 320 322 325 328 329 330 330 329 329 329 328 327 326 325 324 325 327 331 334 334 334 332 331 330 330 331 331 329 328 328 330 331 325 318 314 325 342 346 345 344 345 347 349 349 351 352 352 353 354 354 355 355 355 355 354 352 349
336 334 333 331 329 327 325 323 322 321 320 319 321 324 328 331 332 331 330 329 329 329 329 329 328 327 326 326 329 331 334 334 334 333 331 330 331 332 332 330 329 329 330 332 326 319 315 330 350 353 350 346 347 348 350 351 352 353 354 354 355 355 356 357 357 357 356 354 351
334 332 331 329 328 326 324 323 323 322 321 320 322 327 331 334 333 332 330 329 329 330 330 329 329 328 328 328 329 331 333 334 334 333 332 331 332 333 333 331 330 330 331 331 325 321 322 345 2 1 356 349 348 349 351 353 353 354 354 355 356 357 358 360 -0 359 358 357 354
332 331 329 328 327 326 325 325 325 324 323 323 327 332 336 337 335 333 331 331 331 331 330 329 329 329 329 329 330 332 333 333 334 334 334 334 333 334 333 332 332 332 331 330 324 325 332 360 12 9 0 352 349 350 352 354 355 355 355 356 357 359 0 2 2 2 1 359 357
331 330 330 328 328 327 327 327 328 327 327 328 334 338 340 338 335 334 332 332 331 331 330 329 330 330 329 330 331 332 333 334 334 335 335 336 335 335 335 333 333 333 331 326 326 333 343 3 13 12 4 355 351 351 353 355 356 356 356 357 359 0 2 4 5 5 4 2 0
331 331 331 330 329 329 330 332 332 330 330 332 339 342 342 339 336 334 333 333 332 331 330 330 331 332 331 332 333 334 334 334 335 336 336 337 336 336 335 334 334 333 329 323 328 337 347 0 10 14 10 359 353 352 354 356 356 356 358 359 0 1 2 4 6 6 5 3 2
332 332 333 332 332 333 335 336 333 331 331 337 343 345 342 339 337 335 334 333 332 331 330 332 334 334 334 333 334 335 335 335 335 336 337 337 336 336 336 335 335 332 327 323 330 338 347 357 7 16 18 6 358 356 356 356 355 356 358 1 2 2 2 3 5 6 5 4 3
333 334 334 334 335 337 338 338 334 332 335 343 346 345 342 339 337 336 335 334 332 331 331 335 336 336 334 333 334 335 335 334 335 336 337 337 336 336 336 335 335 331 327 327 330 337 344 351 3 15 22 17 6 1 359 356 354 355 357 0 2 1 1 1 4 4 4 4 3
334 334 335 335 337 339 339 338 335 336 340 346 346 343 340 338 337 337 336 335 333 333 334 338 337 336 334 333 334 334 334 333 334 335 337 337 337 337 337 337 335 332 329 330 331 335 340 345 0 17 25 26 15 6 0 357 354 354 356 359 1 0 -0 0 2 3 3 3 4
333 334 335 336 337 339 339 339 337 339 342 345 343 341 339 338 338 338 337 336 335 335 337 339 337 335 334 334 334 334 333 333 333 335 337 338 339 339 339 339 336 332 330 331 331 335 339 345 6 25 31 31 24 12 3 360 356 355 356 358 359 359 359 359 359 0 2 3 5
332 333 334 335 336 338 339 338 338 339 342 343 341 339 339 339 339 339 338 337 336 337 337 338 336 335 335 336 336 335 334 334 336 338 339 340 341 340 340 340 337 333 331 332 332 337 343 358 23 35 35 34 29 18 5 0 357 356 355 355 355 355 355 355 356 358 359 2 6
331 332 333 334 336 337 337 337 337 338 340 340 339 339 339 340 340 340 339 337 336 336 337 337 336 336 336 337 337 336 336 336 339 341 342 342 341 341 341 341 338 334 332 333 334 340 349 17 35 39 34 32 27 17 5 359 357 355 353 351 351 352 353 353 354 355 356 360 7
329 331 333 334 335 335 335 335 335 336 338 338 339 339 340 340 340 339 338 336 336 336 337 337 337 337 337 338 337 337 337 338 340 342 343 343 342 342 342 343 340 336 333 335 336 343 355 26 37 36 29 27 23 13 3 359 357 355 352 349 349 350 352 353 353 352 353 356 7
328 331 333 334 334 334 334 334 333 334 336 337 338 339 339 339 338 338 337 336 336 337 337 337 336 336 336 337 337 337 337 338 340 341 342 343 342 343 344 345 341 336 335 336 339 346 359 26 33 32 26 23 18 10 3 2 0 357 355 351 350 351 353 355 355 353 351 354 8
328 330 332 333 333 333 333 332 332 333 334 336 338 339 339 338 338 338 337 337 337 336 336 335 335 335 335 336 336 336 337 339 340 341 342 343 343 344 345 347 342 338 337 338 339 346 359 22 30 30 25 22 17 9 5 5 3 1 358 353 353 354 355 357 357 355 352 353 11
328 330 331 332 332 332 332 331 331 332 333 335 336 338 338 338 338 337 336 335 336 335 335 334 334 334 335 336 335 336 337 339 340 342 343 343 343 344 345 347 342 339 338 339 340 346 356 16 29 31 27 23 17 11 8 6 5 3 360 356 357 358 359 -0 360 357 355 356 19
327 328 329 330 330 331 331 330 330 331 332 333 335 336 337 337 337 336 335 335 335 335 334 334 334 336 337 337 336 336 337 339 341 343 343 343 343 344 346 347 344 340 339 339 340 344 353 12 30 36 31 27 20 14 11 9 6 3 0 359 -0 1 2 2 2 -0 359 0 29
324 325 326 327 328 329 329 329 329 329 330 332 333 335 336 335 335 334 335 336 335 334 333 333 335 337 338 337 335 335 337 340 342 344 344 343 343 344 346 348 344 340 338 339 340 343 350 9 32 42 36 33 26 20 16 12 7 4 2 0 1 3 4 3 2 1 3 6 36
322 323 324 325 326 327 327 327 327 327 328 329 331 332 334 334 334 334 335 335 334 333 332 332 335 337 337 336 335 335 337 340 343 344 344 343 343 345 347 348 344 340 338 339 340 341 347 6 33 46 40 39 32 26 20 14 10 7 4 1 0 2 4 5 2 2 6 11 35
319 320 322 323 324 325 325 324 324 324 324 325 327 330 332 334 334 334 334 333 331 330 329 330 334 335 336 336 335 335 337 340 343 344 344 343 342 345 348 348 344 340 338 339 340 340 345 3 32 47 41 40 36 32 27 19 14 10 6 2 0 2 4 6 6 6 8 12 27
316 318 319 321 322 322 322 321 319 319 319 321 325 328 330 333 333 332 331 329 328 328 328 329 332 334 335 335 335 335 337 340 342 343 343 342 341 344 347 347 343 340 339 340 340 339 343 359 26 42 39 33 32 33 32 26 19 14 10 6 3 2 3 5 8 10 11 12 19
313 315 317 318 319 319 318 317 315 314 314 317 321 325 328 331 331 330 329 327 327 327 327 328 331 333 334 334 333 334 337 339 341 342 342 341 340 342 345 346 343 342 341 341 340 339 342 355 18 34 39 30 24 27 34 35 26 19 13 8 6 4 4 4 7 11 13 14 16